TimeEDT,TemperatureF,Dew PointF,Humidity,Sea Level PressureIn,VisibilityMPH,Wind Direction,Wind SpeedMPH,Gust SpeedMPH,PrecipitationIn,Events,Conditions,WindDirDegrees,DateUTC
12:53 AM,73.9,66.9,79,29.86,10.0,SW,5.8,-,N/A,,Mostly Cloudy,220,2013-05-23 04:53:00
1:53 AM,71.1,66.9,87,29.85,10.0,SSW,8.1,-,0.00,,Mostly Cloudy,210,2013-05-23 05:53:00
2:06 AM,71.6,66.2,83,29.86,9.0,SW,5.8,-,N/A,,Mostly Cloudy,230,2013-05-23 06:06:00
2:19 AM,71.6,66.2,83,29.86,9.0,SSW,5.8,-,N/A,,Mostly Cloudy,210,2013-05-23 06:19:00
2:53 AM,71.1,66.9,87,29.84,9.0,SSW,8.1,-,N/A,,Mostly Cloudy,210,2013-05-23 06:53:00
3:53 AM,70.0,66.9,90,29.83,8.0,SSW,8.1,-,N/A,,Partly Cloudy,200,2013-05-23 07:53:00
4:53 AM,70.0,66.9,90,29.84,9.0,SW,8.1,-,N/A,,Scattered Clouds,230,2013-05-23 08:53:00
5:53 AM,70.0,66.9,90,29.86,9.0,SW,6.9,-,N/A,,Mostly Cloudy,220,2013-05-23 09:53:00
6:19 AM,71.6,66.2,83,29.88,9.0,SW,8.1,-,N/A,,Overcast,220,2013-05-23 10:19:00
6:53 AM,71.1,66.9,87,29.87,9.0,SW,8.1,-,N/A,,Overcast,220,2013-05-23 10:53:00
7:53 AM,72.0,68.0,87,29.88,9.0,SW,8.1,-,N/A,,Overcast,230,2013-05-23 11:53:00
8:53 AM,73.0,66.9,81,29.87,10.0,SSW,10.4,-,N/A,,Overcast,210,2013-05-23 12:53:00
9:53 AM,73.9,66.9,79,29.86,10.0,SW,11.5,-,N/A,,Overcast,230,2013-05-23 13:53:00
10:53 AM,75.0,66.9,76,29.86,10.0,SW,13.8,23.0,N/A,,Overcast,230,2013-05-23 14:53:00
11:10 AM,75.2,66.2,73,29.88,10.0,SW,17.3,24.2,N/A,,Overcast,230,2013-05-23 15:10:00
11:39 AM,75.2,66.2,73,29.88,10.0,SW,17.3,26.5,0.06,,Overcast,220,2013-05-23 15:39:00
11:49 AM,75.2,66.2,73,29.88,10.0,WSW,12.7,21.9,0.06,,Overcast,250,2013-05-23 15:49:00
11:53 AM,75.9,66.9,74,29.86,10.0,WSW,13.8,-,0.06,,Overcast,240,2013-05-23 15:53:00
12:53 PM,79.0,66.9,66,29.84,10.0,WSW,13.8,19.6,N/A,,Mostly Cloudy,250,2013-05-23 16:53:00
1:53 PM,78.1,66.0,66,29.81,9.0,SW,17.3,-,0.00,Rain,Light Rain,220,2013-05-23 17:53:00
2:53 PM,79.0,64.9,62,29.80,10.0,WSW,19.6,27.6,0.00,,Mostly Cloudy,240,2013-05-23 18:53:00
3:53 PM,73.9,66.0,76,29.80,10.0,SW,18.4,26.5,N/A,,Mostly Cloudy,220,2013-05-23 19:53:00
4:09 PM,71.6,66.2,83,29.82,1.8,SSW,13.8,25.3,0.07,Rain,Heavy Rain,210,2013-05-23 20:09:00
4:13 PM,71.6,66.2,83,29.82,3.0,SW,12.7,19.6,0.07,Rain,Light Rain,220,2013-05-23 20:13:00
4:53 PM,70.0,66.9,90,29.78,5.0,SW,9.2,-,0.10,Rain,Rain,220,2013-05-23 20:53:00
5:53 PM,73.0,69.1,87,29.78,10.0,SSW,12.7,18.4,0.01,,Mostly Cloudy,200,2013-05-23 21:53:00
6:53 PM,72.0,66.9,84,29.77,10.0,SSW,13.8,-,0.00,Rain,Light Rain,200,2013-05-23 22:53:00
7:42 PM,71.6,64.4,78,29.79,10.0,SSW,12.7,-,0.00,,Mostly Cloudy,200,2013-05-23 23:42:00
7:53 PM,72.0,64.9,78,29.77,10.0,South,10.4,-,0.00,,Mostly Cloudy,190,2013-05-23 23:53:00
8:53 PM,71.1,64.9,81,29.77,10.0,SSW,10.4,-,N/A,,Overcast,210,2013-05-24 00:53:00
9:53 PM,70.0,64.9,84,29.75,10.0,SSW,9.2,-,N/A,,Overcast,210,2013-05-24 01:53:00
10:53 PM,70.0,64.9,84,29.75,10.0,SSW,8.1,-,N/A,,Overcast,210,2013-05-24 02:53:00
11:53 PM,69.1,64.9,87,29.73,10.0,SSW,5.8,-,N/A,,Overcast,210,2013-05-24 03:53:00